Погода в Лебяжьем 1-ом

Россия / Курганская область     55°19′37″N   66°27′24″E
темп.,
°C
ветер,
м/с
пор.,
м/с
влажн.,
%
обл.,
%
осадки,
мм/ч
давл.,
гПа
погр.,
м
24 июня, чт
чт2423:00+13св2263100 0.0 101623
02:00+12с4866100 0.0 1016307
05:00+8с49915 0.0 1017292
08:00+13ссв69609 0.0 10181285
11:00+14с6952100 0.0 10181721
14:00+16ссв584992 0.0 10171762
17:00+18с584674 0.0 10171913
20:00+15св2260100 0.0 101619
25 июня, пт
пт2523:00+13ю356395 0.0 101678
02:00+12ююз4864100 0.0 1014199
05:00+13юз4863100 0.0 1013180
08:00+18юз585813 0.0 1011498
11:00+21зюз33575 0.0 1011949
14:00+24ссз244871 0.0 10102028
17:00+24с554236 0.0 10101941
20:00+20в336623 0.0 101145
26 июня, сб
сб2623:00+14в227124 0.0 101211
02:00+13вюв2282100 0.0 101211
05:00+13ю11855 0.0 101311
08:00+19ююв2265100 0.0 1012342
11:00+22ю224657 0.0 10121344
14:00+25ююз223894 0.0 10111802
17:00+25юз3436100 0.0 10091925
20:00+22ююв3355100 0.0 100740
27 июня, вс
вс2723:00+16всв3591100 3.4 1008103
02:00+16ююз229332 0.4 100717
05:00+16ссз11915 0.6 100717
08:00+20ссз22756 0.0 1007389
11:00+24ссз336591 0.2 10071204
14:00+21ссз457988 1.6 1007644
17:00+21ссз6971100 1.6 1008739
20:00+19с6107630 0.0 1009712
28 июня, пн
пн2823:00+14ссз510969 0.0 1010361
02:00+15ссз61089100 0.0 1010536
05:00+14с6990100 0.0 1011560
08:00+15с7982100 0.0 1013682
11:00+16ссв577869 0.1 1014781
14:00+22с465290 0.3 10141844
17:00+22с5750100 0.3 10142012
20:00+19с246985 0.1 101588